Regional Weather Roundup
Issued by NWS

Home | Current Version | Previous Version | Graphics & Text | Print | Product List | Glossary On
Versions: 1 2 3 4 5 6 7 8 9 10 11 12 13 14 15 16 17 18 19 20 21 22 23 24 25 26 27 28 29 30 31 32 33 34 35 36 37 38 39 40 41 42 43 44 45 46 47 48 49 50
000
ASUS45 KCYS 101310
RWRWY

WYOMING REGIONAL WEATHER ROUNDUP
NATIONAL WEATHER SERVICE CHEYENNE WY
600 AM MST WED FEB 10 2016

NOTE:  "FAIR" INDICATES FEW OR NO CLOUDS BELOW 12,000 FEET
WITH NO SIGNIFICANT WEATHER AND/OR OBSTRUCTIONS TO VISIBILITY.

WYZ001-101400-
YELLOWSTONE NATIONAL PARK

CITY           SKY/WX    TMP DP  RH WIND       PRES   REMARKS
LK YELLOWSTONE   N/A      3  -2  79 CALM      30.39R
W YELLOWSTONE  NOT AVBL

$$
WYZ002>013-054>058-071-098>099-101400-
NORTHERN WYOMING

CITY           SKY/WX    TMP DP  RH WIND       PRES   REMARKS
JACKSON        MOCLDY     3   3 100 CALM      30.42S
CODY           FAIR      37  18  44 S5        30.12R WCI  34
GREYBULL       FAIR      19  16  88 NW3       30.14R
WORLAND        FAIR      17  15  92 CALM      30.13S
SHERIDAN       FAIR      42  16  34 CALM      30.00R
BUFFALO        FAIR      58   8  13 NW14      30.03S
GILLETTE       FAIR      41  20  43 W14       30.01R
HULETT         FAIR      41  21  45 SW10      30.00R
NEWCASTLE      FAIR      30  19  64 CALM      30.02S

$$
WYZ014>020-022>026-101>103-101400-
CENTRAL WYOMING

CITY           SKY/WX    TMP DP  RH WIND       PRES   REMARKS
BIG PINEY      FAIR       8   4  83 E3        30.37F
PINEDALE       FAIR       9   3  78 W3        30.37F
DUBOIS         FAIR      30   9  40 NW18      30.26S WCI  18
LANDER         FAIR      27  15  61 CALM      30.19S
RIVERTON       FAIR      19  16  88 NE3       30.20F
CASPER         FAIR      37  19  48 SW25G40   30.14S WCI  25
DOUGLAS        FAIR      37  22  54 W5          N/A  WCI  33

$$
WYZ021-027>030-104>119-101400-
SOUTHERN WYOMING

CITY           SKY/WX    TMP DP  RH WIND       PRES   REMARKS
EVANSTON       FAIR      26  14  60 S9        30.39S WCI  17
FORT BRIDGER   SUNNY     28   9  43 SW12      30.40S WCI  18
ROCK SPRINGS   FAIR      29  15  56 CALM      30.36S
DIXON          FAIR       3   1  88 CALM      30.43F
RAWLINS        FAIR      29  14  53 VRB3      30.30F
SARATOGA       FAIR      28  12  50 S14       30.33F WCI  17
LARAMIE        FAIR      30  12  47 CALM      30.24F
CHEYENNE       FAIR      40  16  37 W21       30.15R WCI  30
TORRINGTON     FAIR      41  21  44 W12       30.05S
PINE BLUFFS    FAIR      36  21  55 NW8       30.11S WCI  29

$$



USA.gov is the U.S. government's official web portal to all federal, state and local government web resources and services.